Weather History for Eugene, OR

Change the Weather History Date:

Saturday, April 5, 2014

  Actual Average Record
Temperature  
Mean Temperature 52 °F 49 °F  
Max Temperature 55 °F 59 °F 75 °F (1952)
Min Temperature 48 °F 39 °F 29 °F (1929)
Degree Days  
Heating Degree Days 13 16  
Month to date heating degree days 75 81  
Since 1 July heating degree days 4127 3977  
Cooling Degree Days 0 0  
Month to date cooling degree days 0 0  
Year to date cooling degree days 0 0  
Growing Degree Days 1 (Base 50)    
Moisture  
Dew Point 47 °F    
Average Humidity 80    
Maximum Humidity 93    
Minimum Humidity 66    
Precipitation  
Precipitation 0.04 in 0.13 in 1.12 in (1991)
Month to date precipitation 0.11 0.67  
Year to date precipitation 16.75 17.96  
Sea Level Pressure  
Sea Level Pressure 30.13 in    
Wind  
Wind Speed 10 mph (South)    
Max Wind Speed 17 mph    
Max Gust Speed 21 mph    
Visibility 10 miles    
Events Rain    
T = Trace of Precipitation, MM = Missing Value Source: NWS Daily Summary

Daily Weather History Graph

Daily Weather History Graph

Search for Another Location

Airport:

Trip Planner

Search our weather history database for the weather conditions in past years. The results will help you decide how hot, cold, wet, or windy it might be!

Date:

Astronomy

Apr. 05, 2014 Rise Set
Actual Time 6:46 AM PDT 7:44 PM PDT
Civil Twilight 6:17 AM PDT 8:14 PM PDT
Nautical Twilight 5:42 AM PDT 8:49 PM PDT
Astronomical Twilight 5:05 AM PDT 9:26 PM PDT
Moon 10:51 AM PDT (4/5) 1:06 AM PDT (4/5)
Length of Visible Light 13h 57m
Length of Day
12h 58m
Waxing Crescent, 35% of the Moon is Illuminated
Apr 5
Waxing Crescent
Apr 7
First Quarter
Apr 15
Full
Apr 22
Last Quarter
Apr 28
New

Hourly Weather History & Observations

Time (PDT) Temp. Dew Point Humidity Pressure Visibility Wind Dir Wind Speed Gust Speed Precip Events Conditions
12:04 AM 48.9 °F 44.1 °F 83% 30.03 in 10.0 mi SSE 4.6 mph - N/A   Overcast
12:39 AM 48.0 °F 43.0 °F 83% 30.03 in 10.0 mi SSE 8.1 mph - N/A   Overcast
12:54 AM 48.0 °F 43.0 °F 83% 30.04 in 10.0 mi South 6.9 mph - N/A   Overcast
1:32 AM 48.0 °F 44.1 °F 86% 30.04 in 10.0 mi SSE 6.9 mph - 0.00 in   Overcast
1:54 AM 48.0 °F 44.1 °F 86% 30.04 in 10.0 mi South 6.9 mph - 0.00 in   Overcast
2:54 AM 48.0 °F 44.1 °F 86% 30.04 in 10.0 mi South 9.2 mph - N/A   Overcast
3:54 AM 48.0 °F 44.1 °F 86% 30.04 in 10.0 mi South 6.9 mph - N/A   Overcast
4:54 AM 48.0 °F 44.1 °F 86% 30.05 in 10.0 mi South 8.1 mph - N/A   Overcast
5:54 AM 48.0 °F 45.0 °F 89% 30.06 in 10.0 mi South 10.4 mph - 0.00 in   Overcast
6:54 AM 48.0 °F 45.0 °F 89% 30.07 in 10.0 mi South 9.2 mph - N/A   Overcast
7:54 AM 48.9 °F 45.0 °F 86% 30.10 in 10.0 mi South 8.1 mph - N/A   Overcast
8:14 AM 48.9 °F 45.0 °F 86% 30.10 in 10.0 mi South 8.1 mph - N/A   Overcast
8:54 AM 50.0 °F 46.0 °F 86% 30.11 in 10.0 mi South 10.4 mph - N/A   Overcast
9:54 AM 52.0 °F 46.0 °F 80% 30.13 in 10.0 mi South 13.8 mph - N/A   Overcast
10:03 AM 52.0 °F 46.0 °F 80% 30.12 in 10.0 mi South 12.7 mph - N/A   Overcast
10:40 AM 55.0 °F 48.0 °F 77% 30.13 in 10.0 mi South 11.5 mph - N/A   Mostly Cloudy
10:54 AM 55.0 °F 46.0 °F 72% 30.14 in 10.0 mi South 16.1 mph - N/A   Mostly Cloudy
11:54 AM 54.0 °F 46.0 °F 75% 30.14 in 10.0 mi SSW 10.4 mph - N/A   Overcast
12:17 PM 55.0 °F 45.0 °F 69% 30.14 in 10.0 mi SSW 12.7 mph - N/A   Overcast
12:54 PM 55.0 °F 45.0 °F 69% 30.15 in 10.0 mi SSW 15.0 mph - N/A   Overcast
1:35 PM 54.0 °F 46.0 °F 75% 30.15 in 10.0 mi SW 11.5 mph - N/A   Overcast
1:46 PM 54.0 °F 46.0 °F 75% 30.15 in 10.0 mi SSW 11.5 mph - 0.00 in Rain Light Rain
1:54 PM 54.0 °F 48.0 °F 80% 30.15 in 10.0 mi SSW 11.5 mph - 0.00 in Rain Light Rain
2:54 PM 54.0 °F 48.0 °F 80% 30.15 in 10.0 mi South 13.8 mph - 0.01 in   Overcast
3:54 PM 54.0 °F 50.0 °F 86% 30.15 in 5.0 mi South 10.4 mph - 0.00 in   Overcast
4:54 PM 54.0 °F 51.1 °F 90% 30.16 in 8.0 mi South 8.1 mph - 0.02 in   Overcast
5:54 PM 53.1 °F 51.1 °F 93% 30.17 in 10.0 mi South 6.9 mph - 0.01 in   Overcast
6:54 PM 54.0 °F 50.0 °F 86% 30.17 in 10.0 mi SSW 8.1 mph - N/A   Overcast
7:54 PM 53.1 °F 48.9 °F 86% 30.18 in 10.0 mi SSW 9.2 mph - N/A   Overcast
8:38 PM 52.0 °F 48.0 °F 86% 30.18 in 10.0 mi SSW 11.5 mph - 0.00 in   Overcast
8:54 PM 52.0 °F 48.9 °F 89% 30.19 in 10.0 mi South 6.9 mph - 0.00 in   Overcast
9:20 PM 52.0 °F 48.0 °F 86% 30.20 in 10.0 mi South 8.1 mph - N/A   Overcast
9:54 PM 52.0 °F 48.0 °F 86% 30.21 in 10.0 mi SSW 6.9 mph - 0.00 in   Overcast
10:54 PM 51.1 °F 48.0 °F 89% 30.21 in 10.0 mi South 6.9 mph - 0.00 in   Overcast
11:54 PM 51.1 °F 48.0 °F 89% 30.22 in 10.0 mi SSW 8.1 mph - N/A   Overcast